User: anonymous   Login
Location: Dillon
(41.1766°N, 107.0923°W)
Time: 14:23:39
(UTC+00:00)
Language:

EO-88 - Orbit

View from above orbital plane
View from above orbital plane
View from above satellite
View from above satellite

Ground track
Ground track

The orbit data is extracted from the following two-line orbital elements,

1 42017U 17008BX  22176.12760757  .00011557  00000-0  34394-3 0  9998
2 42017  97.2690 242.1304 0004752 196.2406 163.8686 15.34862401298259
Epoch (UTC): 25 June 2022 03:03:45
Eccentricity: 0.0004752
inclination: 97.2690°
perigee height: 458 km
apogee height: 464 km
right ascension of ascending node: 242.1304°
argument of perigee: 196.2406°
revolutions per day: 15.34862401
mean anomaly at epoch: 163.8686°
orbit number at epoch: 29825

The dashed part of the orbit path shows where the satellite is in the earth's shadow,  

DLR